| time (UTC) | temp F | wind direction | speed knots | gust knots | rain 1hr in | rain 24hr in | rain mn in | humidity % | barometer mb |
| 20260902022021 | 83 | 339 | 4.3 | 8.7 | 0.00 | 0.00 | 0.00 | 82 | 1015.5 |
| 20260902015833 | 83 | 0 | 3.5 | 7.0 | 0.00 | 0.00 | 0.00 | 82 | 1015.4 |
| 20260902014758 | 83 | 15 | 2.6 | 7.0 | 0.00 | 0.00 | 0.00 | 82 | 1015.6 |
| 20260902012640 | 83 | 355 | 4.3 | 8.7 | 0.00 | 0.00 | 0.00 | 80 | 1015.2 |
| 20260902011614 | 83 | 355 | 2.6 | 7.0 | 0.00 | 0.00 | 0.00 | 80 | 1015.1 |
| 20260902010556 | 83 | 5 | 4.3 | 7.8 | 0.00 | 0.00 | 0.00 | 81 | 1015.1 |
| 20260902005617 | 83 | 0 | 4.3 | 8.7 | 0.00 | 0.00 | 0.00 | 82 | 1015.1 |
| 20260902004545 | 83 | 348 | 4.3 | 8.7 | 0.00 | 0.00 | 0.00 | 82 | 1015.1 |
| 20260902003508 | 84 | 355 | 2.6 | 7.0 | 0.00 | 0.00 | 0.00 | 82 | 1015.1 |
| 20260902001405 | 84 | 0 | 3.5 | 7.8 | 0.00 | 0.00 | 0.00 | 82 | 1015.2 |
| 20260902000407 | 84 | 351 | 3.5 | 7.8 | 0.00 | 0.00 | 0.00 | 81 | 1015.2 |
| 20260901235411 | 84 | 15 | 2.6 | 6.1 | 0.00 | 0.00 | 0.00 | 82 | 1015.2 |
| 20260901234336 | 84 | 0 | 2.6 | 7.8 | 0.00 | 0.00 | 0.00 | 82 | 1015.2 |
| 20260901233327 | 84 | 9 | 3.5 | 7.8 | 0.00 | 0.00 | 0.00 | 81 | 1015.0 |
| 20260901232324 | 84 | 344 | 4.3 | 8.7 | 0.00 | 0.00 | 0.00 | 81 | 1015.0 |
| 20260901231330 | 84 | 9 | 4.3 | 8.7 | 0.00 | 0.00 | 0.00 | 81 | 1014.9 |
| 20260901230341 | 85 | 18 | 5.2 | 8.7 | 0.00 | 0.00 | 0.00 | 80 | 1014.8 |
| 20260901225319 | 85 | 24 | 5.2 | 8.7 | 0.00 | 0.00 | 0.00 | 78 | 1014.7 |
| 20260901224333 | 85 | 37 | 3.5 | 7.0 | 0.00 | 0.00 | 0.00 | 78 | 1014.7 |
| 20260901223311 | 85 | 351 | 3.5 | 8.7 | 0.00 | 0.00 | 0.00 | 79 | 1014.7 |
| 20260901222317 | 85 | 34 | 4.3 | 8.7 | 0.00 | 0.00 | 0.00 | 78 | 1014.5 |
| 20260901221318 | 85 | 57 | 5.2 | 10.4 | 0.00 | 0.00 | 0.00 | 76 | 1014.5 |
| 20260901220338 | 85 | 355 | 5.2 | 10.4 | 0.00 | 0.00 | 0.00 | 77 | 1014.4 |
| 20260901215335 | 85 | 43 | 5.2 | 10.4 | 0.00 | 0.00 | 0.00 | 78 | 1014.3 |
| 20260901214316 | 85 | 45 | 5.2 | 10.4 | 0.00 | 0.00 | 0.00 | 78 | 1014.2 |
| 20260901213307 | 86 | 49 | 6.1 | 11.3 | 0.00 | 0.00 | 0.00 | 80 | 1014.2 |
| 20260901212249 | 86 | 30 | 7.0 | 11.3 | 0.00 | 0.00 | 0.00 | 79 | 1014.2 |
| 20260901211227 | 86 | 45 | 7.0 | 12.2 | 0.00 | 0.00 | 0.00 | 79 | 1014.4 |
| 20260901210209 | 86 | 17 | 7.0 | 12.2 | 0.00 | 0.00 | 0.00 | 77 | 1014.5 |
| 20260901204028 | 86 | 42 | 7.8 | 13.9 | 0.00 | 0.00 | 0.00 | 76 | 1014.6 |
| 20260901203041 | 87 | 29 | 7.0 | 13.0 | 0.00 | 0.00 | 0.00 | 76 | 1014.6 |
| 20260901202103 | 87 | 25 | 7.8 | 13.0 | 0.00 | 0.00 | 0.00 | 74 | 1014.7 |
| 20260901201039 | 87 | 28 | 7.0 | 12.2 | 0.00 | 0.00 | 0.00 | 74 | 1014.8 |
| 20260901194837 | 87 | 22 | 7.0 | 11.3 | 0.00 | 0.00 | 0.00 | 74 | 1014.9 |
| 20260901193808 | 87 | 0 | 6.1 | 10.4 | 0.00 | 0.00 | 0.00 | 75 | 1015.1 |
| 20260901190527 | 86 | 350 | 6.1 | 11.3 | 0.00 | 0.00 | 0.00 | 76 | 1015.1 |
| 20260901184335 | 86 | 25 | 7.0 | 13.0 | 0.00 | 0.00 | 0.00 | 76 | 1015.3 |
| 20260901183258 | 86 | 44 | 7.8 | 13.0 | 0.00 | 0.00 | 0.00 | 77 | 1015.4 |
| 20260901182305 | 86 | 51 | 7.0 | 12.2 | 0.00 | 0.00 | 0.00 | 77 | 1015.5 |
| 20260901181319 | 87 | 54 | 7.0 | 12.2 | 0.00 | 0.00 | 0.00 | 77 | 1015.5 |
| 20260901180322 | 86 | 56 | 7.0 | 12.2 | 0.00 | 0.00 | 0.00 | 77 | 1015.6 |
| 20260901175334 | 87 | 5 | 7.0 | 11.3 | 0.00 | 0.00 | 0.00 | 78 | 1015.8 |
| 20260901174348 | 87 | 348 | 7.0 | 12.2 | 0.00 | 0.00 | 0.00 | 78 | 1016.0 |
| 20260901173322 | 86 | 0 | 7.8 | 12.2 | 0.00 | 0.00 | 0.00 | 77 | 1016.3 |
| 20260901172325 | 87 | 9 | 6.1 | 10.4 | 0.00 | 0.00 | 0.00 | 77 | 1016.4 |
| 20260901171324 | 87 | 32 | 6.1 | 11.3 | 0.00 | 0.00 | 0.00 | 76 | 1016.2 |
| 20260901170303 | 87 | 53 | 7.0 | 11.3 | 0.00 | 0.00 | 0.00 | 76 | 1016.3 |
| 20260901165300 | 87 | 12 | 7.0 | 11.3 | 0.00 | 0.00 | 0.00 | 77 | 1016.4 |
| 20260901164250 | 87 | 40 | 6.1 | 11.3 | 0.00 | 0.00 | 0.00 | 78 | 1016.4 |
| 20260901163215 | 86 | 15 | 7.0 | 12.2 | 0.00 | 0.00 | 0.00 | 78 | 1016.5 |
| 20260901162230 | 86 | 15 | 7.8 | 12.2 | 0.00 | 0.00 | 0.00 | 79 | 1016.5 |
| 20260901161210 | 86 | 36 | 7.0 | 10.4 | 0.00 | 0.00 | 0.00 | 79 | 1016.6 |
| 20260901160223 | 86 | 44 | 7.0 | 10.4 | 0.00 | 0.00 | 0.00 | 79 | 1016.6 |
| 20260901155245 | 86 | 0 | 6.1 | 9.6 | 0.00 | 0.00 | 0.00 | 78 | 1016.7 |
| 20260901152018 | 85 | 346 | 7.8 | 10.4 | 0.00 | 0.00 | 0.00 | 78 | 1016.8 |
| 20260901151022 | 86 | 24 | 6.1 | 10.4 | 0.00 | 0.00 | 0.00 | 77 | 1016.8 |
| 20260901150013 | 85 | 329 | 6.1 | 10.4 | 0.00 | 0.00 | 0.00 | 79 | 1016.6 |
| 20260901145021 | 85 | 47 | 6.1 | 9.6 | 0.00 | 0.00 | 0.00 | 80 | 1016.8 |
| 20260901144000 | 85 | 355 | 6.1 | 9.6 | 0.00 | 0.00 | 0.00 | 81 | 1016.8 |
| 20260901143014 | 85 | 355 | 6.1 | 9.6 | 0.00 | 0.00 | 0.00 | 81 | 1016.7 |
| 20260901135701 | 85 | 12 | 4.3 | 7.8 | 0.00 | 0.00 | 0.00 | 81 | 1016.4 |
| 20260901134717 | 85 | 346 | 5.2 | 7.8 | 0.00 | 0.00 | 0.00 | 82 | 1016.3 |
| 20260901132525 | 85 | 344 | 4.3 | 8.7 | 0.00 | 0.00 | 0.00 | 80 | 1016.1 |
| 20260901131513 | 85 | 347 | 4.3 | 7.8 | 0.00 | 0.00 | 0.00 | 80 | 1016.1 |
| 20260901130536 | 85 | 350 | 3.5 | 7.0 | 0.00 | 0.00 | 0.00 | 81 | 1016.0 |
| 20260901125542 | 85 | 351 | 4.3 | 6.1 | 0.00 | 0.00 | 0.00 | 81 | 1016.0 |
| 20260901124558 | 85 | 5 | 2.6 | 5.2 | 0.00 | 0.00 | 0.00 | 81 | 1015.9 |
| 20260901123615 | 85 | 19 | 1.7 | 5.2 | 0.00 | 0.00 | 0.00 | 83 | 1015.8 |
| 20260901122618 | 84 | 5 | 2.6 | 5.2 | 0.00 | 0.00 | 0.00 | 84 | 1015.7 |
| 20260901121639 | 84 | 23 | 1.7 | 3.5 | 0.00 | 0.00 | 0.00 | 85 | 1015.6 |
| 20260901120637 | 83 | 0 | 0.9 | 2.6 | 0.00 | 0.00 | 0.00 | 87 | 1015.6 |
| 20260901114439 | 82 | 355 | 1.7 | 5.2 | 0.00 | 0.00 | 0.00 | 87 | 1015.3 |
| 20260901113417 | 81 | 355 | 2.6 | 5.2 | 0.00 | 0.00 | 0.00 | 87 | 1015.3 |
| 20260901112343 | 81 | 355 | 1.7 | 3.5 | 0.00 | 0.00 | 0.00 | 87 | 1015.1 |
| 20260901111348 | 81 | 336 | 1.7 | 3.5 | 0.00 | 0.00 | 0.00 | 87 | 1015.0 |
| 20260901110351 | 81 | 327 | 1.7 | 4.3 | 0.00 | 0.00 | 0.00 | 87 | 1014.9 |
| 20260901105323 | 81 | 340 | 2.6 | 3.5 | 0.00 | 0.00 | 0.00 | 87 | 1015.0 |
| 20260901104338 | 81 | 343 | 1.7 | 3.5 | 0.00 | 0.00 | 0.00 | 87 | 1015.0 |
| 20260901103330 | 81 | 339 | 0.9 | 2.6 | 0.00 | 0.00 | 0.00 | 87 | 1014.8 |
| 20260901102300 | 81 | 339 | 0.9 | 1.7 | 0.00 | 0.00 | 0.00 | 87 | 1014.6 |
| 20260901101259 | 81 | 9 | 0.9 | 1.7 | 0.00 | 0.00 | 0.00 | 87 | 1014.6 |
| 20260901100239 | 81 | 5 | 0.9 | 1.7 | 0.00 | 0.00 | 0.00 | 86 | 1014.6 |
| 20260901094107 | 81 | 355 | 0.0 | 0.9 | 0.00 | 0.00 | 0.00 | 86 | 1014.6 |
| 20260901093120 | 81 | 355 | 0.0 | 0.0 | 0.00 | 0.00 | 0.00 | 86 | 1014.6 |
| 20260901092106 | 82 | 355 | 0.0 | 0.9 | 0.00 | 0.00 | 0.00 | 86 | 1014.5 |
| 20260901091047 | 82 | 355 | 0.0 | 1.7 | 0.00 | 0.00 | 0.00 | 86 | 1014.6 |
| 20260901090024 | 82 | 355 | 0.0 | 1.7 | 0.00 | 0.00 | 0.00 | 86 | 1014.6 |
| 20260901083837 | 82 | 355 | 0.9 | 2.6 | 0.00 | 0.00 | 0.00 | 86 | 1014.6 |
| 20260901082856 | 82 | 342 | 1.7 | 2.6 | 0.00 | 0.00 | 0.00 | 86 | 1014.7 |
| 20260901081841 | 83 | 336 | 0.0 | 0.9 | 0.00 | 0.00 | 0.00 | 86 | 1014.7 |
| 20260901080837 | 82 | 336 | 0.0 | 2.6 | 0.00 | 0.00 | 0.00 | 86 | 1014.7 |
| 20260901075809 | 83 | 336 | 0.9 | 2.6 | 0.00 | 0.00 | 0.00 | 86 | 1014.7 |
| 20260901074823 | 83 | 341 | 0.9 | 1.7 | 0.00 | 0.00 | 0.00 | 86 | 1014.7 |
| 20260901073803 | 83 | 341 | 0.0 | 1.7 | 0.00 | 0.00 | 0.00 | 86 | 1014.8 |
| 20260901072728 | 83 | 44 | 0.0 | 0.0 | 0.00 | 0.00 | 0.00 | 86 | 1014.9 |
| 20260901070545 | 82 | 44 | 0.0 | 0.0 | 0.00 | 0.00 | 0.00 | 85 | 1015.0 |
| 20260901062128 | 83 | 136 | 0.0 | 0.0 | 0.00 | 0.31 | 0.00 | 84 | 1015.4 |
| 20260901061130 | 83 | 136 | 0.0 | 0.0 | 0.00 | 0.31 | 0.00 | 84 | 1015.5 |
| 20260901054958 | 83 | 136 | 0.0 | 0.9 | 0.00 | 0.31 | 0.00 | 84 | 1015.7 |
| 20260901053939 | 83 | 116 | 0.0 | 2.6 | 0.00 | 0.36 | 0.00 | 84 | 1015.8 |
| 20260901052912 | 83 | 117 | 0.9 | 5.2 | 0.00 | 0.36 | 0.00 | 84 | 1015.9 |
| 20260901051913 | 83 | 112 | 1.7 | 5.2 | 0.00 | 0.36 | 0.00 | 85 | 1015.9 |
| 20260901050848 | 83 | 99 | 0.9 | 4.3 | 0.00 | 0.36 | 0.00 | 85 | 1016.1 |
| 20260901045903 | 83 | 107 | 0.0 | 0.9 | 0.00 | 0.36 | 0.00 | 86 | 1016.3 |
| 20260901043719 | 83 | 5 | 0.0 | 0.0 | 0.00 | 0.36 | 0.00 | 85 | 1016.2 |
| 20260901042709 | 83 | 5 | 0.0 | 0.0 | 0.00 | 0.36 | 0.00 | 86 | 1016.2 |
| 20260901041707 | 83 | 5 | 0.0 | 0.0 | 0.00 | 0.36 | 0.00 | 85 | 1016.3 |
| 20260901040646 | 83 | 5 | 0.0 | 0.0 | 0.00 | 0.36 | 0.00 | 85 | 1016.3 |
| 20260901035626 | 83 | 32 | 0.0 | 0.0 | 0.00 | 0.36 | 0.36 | 85 | 1016.3 |
| 20260901033420 | 83 | 50 | 0.0 | 1.7 | 0.00 | 0.36 | 0.36 | 85 | 1016.1 |
| 20260901032345 | 83 | 15 | 0.0 | 0.0 | 0.00 | 0.36 | 0.36 | 85 | 1016.2 |
| 20260901031358 | 83 | 30 | 0.0 | 0.0 | 0.00 | 0.36 | 0.36 | 85 | 1016.4 |
| 20260901030413 | 84 | 30 | 0.0 | 1.7 | 0.00 | 0.36 | 0.36 | 84 | 1016.5 |
| 20260901025338 | 84 | 24 | 0.9 | 3.5 | 0.00 | 0.36 | 0.36 | 84 | 1016.5 |
| 20260901023303 | 84 | 41 | 0.9 | 2.6 | 0.00 | 0.36 | 0.36 | 84 | 1016.6 |